カタログに戻る

OBZOR-R 01

運用中科学SSO
NORAD 67234·PAYLOAD·🇷🇺 Russia

打ち上げ Dec 25, 2025 から Plesetsk Cosmodrome

Loading…

次のパス (今後24時間)

TLE

最新Source: Space-Track

元期: Sep 14, 2026, 10:44 UTC

1 67234U 25310A   26257.44786991  .00000081  00000-0  19173-4 0  9997
2 67234  97.9685 263.4640 0001289  79.2505 280.8850 14.75910440 38794

AllMySatでOBZOR-R 01をリアルタイム追跡

Download on the App Store